Change the Weather History Date:

Wednesday, October 10, 2012

  Actual Average Record
Temperature  
Mean Temperature 51 °F -  
Max Temperature 60 °F 58 °F 80 °F (2011)
Min Temperature 42 °F 37 °F 32 °F (2000)
Degree Days  
Heating Degree Days 14    
Growing Degree Days 1 (Base 50)    
Moisture  
Dew Point 50 °F    
Average Humidity 88    
Maximum Humidity 94    
Minimum Humidity 76    
Precipitation  
Precipitation 0.81 in - - ()
Sea Level Pressure  
Sea Level Pressure 29.86 in    
Wind  
Wind Speed 2 mph (South)    
Max Wind Speed 9 mph    
Max Gust Speed 18 mph    
Visibility 7 miles    
Events Rain , Thunderstorm    
Averages and records for this station are not official NWS values.
T = Trace of Precipitation, MM = Missing Value Source: NWS Daily Summary

Daily Weather History Graph

Daily Weather History Graph

Search for Another Location

Airport or City:

Trip Planner

Search our weather history database for the weather conditions in past years. The results will help you decide how hot, cold, wet, or windy it might be!

Date:

Astronomy

Oct. 10, 2012 Rise Set
Actual Time 6:47 AM EDT 6:02 PM EDT
Civil Twilight 6:18 AM EDT 6:31 PM EDT
Nautical Twilight 5:45 AM EDT 7:05 PM EDT
Astronomical Twilight 5:11 AM EDT 7:38 PM EDT
Moon 1:10 AM EDT (10/10) 3:12 PM EDT (10/10)
Length of Visible Light 12h 12m
Length of Day
11h 15m
Waning Crescent, 27% of the Moon is Illuminated
Oct 10
Waning Crescent
Oct 15
New
Oct 21
First Quarter
Oct 29
Full
Nov 6
Last Quarter

Hourly Weather History & Observations

Time (EDT) Temp. Dew Point Humidity Pressure Visibility Wind Dir Wind Speed Gust Speed Precip Events Conditions
12:53 AM 42.1 °F 39.0 °F 89% 30.19 in 10.0 mi Calm Calm - N/A   Overcast
1:53 AM 43.0 °F 39.9 °F 89% 30.18 in 10.0 mi Calm Calm - N/A   Overcast
2:53 AM 44.1 °F 39.0 °F 82% 30.16 in 10.0 mi Calm Calm - N/A   Overcast
3:53 AM 44.1 °F 39.9 °F 85% 30.14 in 10.0 mi Calm Calm - N/A   Overcast
4:53 AM 45.0 °F 39.9 °F 82% 30.12 in 10.0 mi Calm Calm - N/A   Overcast
5:53 AM 45.0 °F 39.9 °F 82% 30.12 in 10.0 mi Calm Calm - N/A   Overcast
6:53 AM 45.0 °F 39.9 °F 82% 30.12 in 10.0 mi Calm Calm - N/A   Overcast
7:32 AM 44.6 °F 41.0 °F 87% 30.11 in 10.0 mi Calm Calm - N/A   Overcast
7:53 AM 46.0 °F 41.0 °F 83% 30.11 in 10.0 mi Calm Calm - N/A   Overcast
8:12 AM 46.4 °F 41.0 °F 81% 30.09 in 10.0 mi Calm Calm - N/A   Overcast
8:53 AM 50.0 °F 43.0 °F 77% 30.08 in 10.0 mi East 8.1 mph - N/A   Mostly Cloudy
9:12 AM 51.8 °F 44.6 °F 76% 30.08 in 10.0 mi Calm Calm - N/A   Overcast
9:53 AM 51.1 °F 45.0 °F 80% 30.07 in 10.0 mi Calm Calm - N/A   Overcast
10:53 AM 52.0 °F 46.0 °F 80% 30.04 in 10.0 mi Variable 3.5 mph - N/A   Overcast
11:32 AM 53.6 °F 46.4 °F 77% 30.02 in 10.0 mi Calm Calm - N/A   Overcast
11:53 AM 54.0 °F 46.9 °F 77% 30.02 in 10.0 mi Calm Calm - N/A   Overcast
12:53 PM 53.1 °F 48.9 °F 86% 29.99 in 7.0 mi Calm Calm - N/A   Overcast
1:53 PM 54.0 °F 50.0 °F 86% 29.93 in 7.0 mi Calm Calm - 0.00 in Rain Light Rain
2:53 PM 55.9 °F 53.1 °F 90% 29.90 in 10.0 mi East 4.6 mph - 0.00 in   Overcast
3:53 PM 55.9 °F 54.0 °F 93% 29.86 in 7.0 mi ESE 5.8 mph - 0.02 in Rain Light Rain
4:43 PM 57.2 °F 55.4 °F 94% 29.82 in 2.5 mi ESE 6.9 mph - 0.02 in Rain Light Rain
4:51 PM 57.2 °F 55.4 °F 94% 29.82 in 5.0 mi ESE 9.2 mph - 0.02 in   Overcast
4:53 PM 57.0 °F 55.0 °F 93% 29.82 in 6.0 mi ESE 8.1 mph - 0.02 in   Overcast
5:53 PM 57.0 °F 55.0 °F 93% 29.78 in 8.0 mi Variable 3.5 mph - 0.01 in Rain Light Rain
6:53 PM 57.0 °F 55.0 °F 93% 29.73 in 5.0 mi ESE 8.1 mph - 0.03 in Rain Light Rain
7:19 PM 57.2 °F 55.4 °F 94% 29.72 in 1.8 mi Variable 6.9 mph - 0.16 in Rain Heavy Rain
7:27 PM 57.2 °F 55.4 °F 94% 29.71 in 2.5 mi East 3.5 mph - 0.20 in Rain , Thunderstorm Heavy Rain
7:34 PM 57.2 °F 55.4 °F 94% 29.70 in 4.0 mi Variable 3.5 mph - 0.22 in Rain , Thunderstorm Rain
7:42 PM 57.2 °F 55.4 °F 94% 29.70 in 2.5 mi Variable 3.5 mph - 0.29 in Rain Heavy Rain
7:50 PM 57.2 °F 55.4 °F 94% 29.70 in 1.8 mi SE 6.9 mph - 0.39 in Rain Heavy Rain
7:53 PM 57.9 °F 55.9 °F 93% 29.70 in 1.8 mi Variable 4.6 mph - 0.44 in Rain Heavy Rain
8:05 PM 57.2 °F 55.4 °F 94% 29.70 in 2.5 mi South 3.5 mph - 0.09 in Rain Rain
8:19 PM 57.2 °F 55.4 °F 94% 29.68 in 3.0 mi Calm Calm - 0.12 in Rain Light Rain
8:34 PM 59.0 °F 57.2 °F 94% 29.67 in 1.8 mi South 4.6 mph - 0.20 in Rain Rain
8:44 PM 59.0 °F 55.4 °F 88% 29.67 in 2.5 mi Variable 5.8 mph - 0.22 in Rain Light Rain
8:51 PM 59.0 °F 57.2 °F 94% 29.67 in 3.0 mi SW 6.9 mph - 0.24 in Rain Rain
8:53 PM 59.0 °F 57.0 °F 93% 29.67 in 3.0 mi SSW 9.2 mph - 0.24 in Rain Rain
9:37 PM 59.0 °F 57.2 °F 94% 29.65 in 2.5 mi SSW 6.9 mph - 0.05 in Rain Light Rain
9:45 PM 59.0 °F 57.2 °F 94% 29.65 in 4.0 mi SW 9.2 mph - 0.05 in Rain Light Rain
9:53 PM 60.1 °F 57.0 °F 90% 29.65 in 8.0 mi SW 8.1 mph 17.3 mph 0.05 in Rain Light Rain
10:39 PM 59.0 °F 55.4 °F 88% 29.64 in 10.0 mi SW 5.8 mph - 0.00 in   Overcast
10:53 PM 59.0 °F 55.9 °F 90% 29.64 in 10.0 mi WSW 8.1 mph - 0.00 in   Overcast
11:17 PM 57.2 °F 53.6 °F 88% 29.65 in 10.0 mi West 9.2 mph 18.4 mph N/A   Overcast
11:32 PM 55.4 °F 53.6 °F 94% 29.65 in 10.0 mi Variable 5.8 mph - N/A   Overcast
11:53 PM 55.0 °F 52.0 °F 89% 29.66 in 10.0 mi West 4.6 mph - N/A   Overcast